Theta_e
361 362 361 357 355 352 353 347 347 338 340 343 339 352 351 347 355 357 362 347 348 348 346 344 347 349 351 353 354 354 355 356 356 356 355 356 355 354
356 359 362 359 356 353 353 353 349 346 339 350 345 354 352 349 351 358 360 353 348 346 344 343 343 344 347 349 349 349 350 351 351 351 352 352 351 351
360 360 359 359 354 356 356 354 355 350 345 350 353 354 356 350 359 359 363 361 356 344 343 343 341 342 343 345 345 345 346 347 347 348 350 350 348 349
356 357 354 357 357 359 357 356 353 354 350 348 351 351 353 357 361 362 359 355 357 350 343 342 340 339 339 339 338 338 338 340 342 343 345 346 345 345
360 357 355 356 358 357 357 353 354 355 355 350 346 350 351 354 353 361 360 360 361 354 342 341 340 338 337 335 334 332 330 331 333 335 337 338 340 342
360 359 360 356 357 357 356 357 355 353 352 350 349 348 351 352 353 346 345 342 351 354 352 346 343 341 338 334 333 332 327 324 325 328 330 331 334 337
357 361 359 357 353 354 357 357 357 353 352 351 345 344 345 348 344 348 345 347 349 352 346 349 351 350 346 337 341 337 331 326 323 324 325 325 327 329
357 361 361 355 353 346 344 346 348 354 351 348 347 346 348 349 349 349 348 343 340 355 346 345 352 351 353 350 342 338 331 327 325 323 323 323 324 324
358 359 355 354 354 361 344 346 341 340 343 350 345 344 343 346 341 341 342 342 343 348 350 345 352 349 349 341 335 331 328 326 324 323 323 322 321 321
357 358 359 359 360 356 359 359 354 353 345 343 344 345 346 338 334 332 330 330 333 337 344 336 341 345 345 334 327 328 325 323 322 321 321 319 317 316
356 358 356 356 337 336 352 350 351 348 341 337 337 334 328 326 327 331 328 324 321 324 332 333 333 335 337 333 330 324 321 320 319 319 319 317 314 314
355 357 343 349 327 329 349 348 344 345 346 339 340 333 328 332 325 331 332 327 327 328 337 333 337 333 327 325 323 326 323 315 315 316 318 314 311 321
351 350 353 328 323 325 329 345 340 332 333 334 335 336 336 337 336 332 334 332 328 328 334 334 332 335 333 319 318 319 321 317 316 314 311 312 312 318
349 352 350 322 320 322 324 325 319 321 327 328 330 331 335 334 336 337 334 335 337 334 336 335 330 330 329 321 318 316 317 317 316 314 313 310 310 313
346 335 323 319 316 319 318 319 319 325 328 328 331 332 334 333 337 336 337 339 337 336 335 334 331 329 328 324 316 315 313 314 314 313 313 315 315 316
332 333 330 329 325 324 327 319 324 329 330 332 332 331 333 332 332 332 330 329 330 328 332 328 327 327 324 325 319 313 314 311 313 314 314 315 315 316
334 338 332 330 329 329 329 331 330 332 330 331 328 327 329 327 329 331 329 328 323 325 325 321 320 320 323 323 316 315 314 312 314 313 313 311 313 314
328 334 332 331 331 331 333 333 335 332 332 331 330 330 327 327 327 328 328 325 323 322 317 316 316 315 316 317 320 315 315 313 313 313 314 311 311 313
327 332 334 333 333 335 334 335 335 335 335 332 329 328 328 328 324 327 327 324 322 319 318 317 315 316 312 311 313 315 314 313 312 311 313 313 311 312
328 329 330 333 336 335 335 335 335 334 333 332 329 329 329 327 327 326 325 327 321 316 315 315 316 316 316 315 312 313 309 313 312 311 311 313 314 316
325 327 329 331 334 336 337 336 337 333 333 331 329 328 328 327 327 327 323 313 317 320 316 315 317 317 317 317 313 312 313 310 314 313 312 311 310 310
330 327 328 333 336 338 338 339 337 332 331 331 330 329 328 327 327 326 326 322 319 321 320 320 320 318 316 315 313 311 310 312 312 314 315 315 310 307
330 329 329 331 337 338 336 336 334 333 333 333 332 331 330 327 328 326 324 324 322 319 318 317 318 318 317 315 314 312 309 309 310 310 312 314 315 315
Wind_Speed
3 5 3 4 6 5 5 3 3 2 2 2 6 4 3 8 10 7 6 14 14 13 13 12 12 12 12 12 11 11 11 10 10 10 9 8 6 5
4 5 3 4 6 4 4 4 2 2 2 3 7 1 7 3 13 14 3 12 15 16 17 16 15 14 12 12 11 11 11 11 10 10 10 10 8 7
4 3 3 6 6 5 4 4 4 2 1 4 2 3 6 9 11 5 4 5 7 18 18 16 15 14 14 13 12 11 12 11 11 10 11 11 10 9
7 6 6 6 7 6 5 6 4 4 3 5 3 4 5 7 7 7 6 5 5 7 16 14 13 13 13 13 13 12 12 12 12 12 12 11 11 10
6 6 9 7 6 4 3 4 4 3 3 3 7 5 5 5 4 2 4 4 4 6 9 14 17 17 16 15 14 14 13 12 13 12 11 11 10 8
7 8 7 7 8 6 6 5 5 6 5 5 5 4 3 2 4 3 1 7 11 7 4 10 11 14 14 14 13 13 13 12 12 13 13 12 12 10
9 7 8 11 10 7 5 6 6 4 4 4 7 6 6 4 4 1 4 6 8 4 1 5 15 5 5 9 9 13 13 13 12 13 13 14 14 12
10 7 7 8 10 14 14 14 2 5 7 4 7 7 7 6 5 3 5 5 5 5 4 5 8 6 7 8 14 13 14 13 13 13 13 15 15 13
9 7 8 10 8 2 5 6 6 8 10 7 7 6 7 5 3 4 4 5 5 6 3 4 3 7 2 4 9 6 9 11 13 14 15 16 14 14
7 6 6 6 5 4 4 5 8 8 9 7 7 6 4 3 1 3 4 7 9 7 4 8 5 5 5 6 11 4 6 7 9 12 15 16 15 16
8 9 10 9 6 7 4 5 5 4 4 12 11 7 6 7 5 2 3 4 6 6 5 6 6 3 2 3 4 7 2 5 8 11 13 13 14 15
10 12 14 15 13 11 5 4 6 6 1 5 3 4 6 7 11 7 3 5 6 6 1 4 5 3 2 2 2 2 2 5 4 8 11 12 17 8
9 10 9 11 9 6 2 3 4 2 5 4 5 5 6 7 6 7 7 5 5 6 6 5 4 4 2 2 1 2 1 2 3 4 9 12 11 11
11 7 3 9 8 7 5 4 2 1 4 5 4 6 2 3 2 4 6 6 5 5 4 3 3 3 2 2 1 0 2 3 4 3 4 6 6 11
12 7 7 6 7 5 6 3 5 4 5 5 3 2 2 3 2 3 3 3 5 5 2 1 1 3 1 3 2 3 2 1 2 5 5 6 6 6
5 4 3 4 6 2 3 6 6 7 7 2 2 2 2 3 2 2 2 3 3 4 4 4 3 3 3 2 3 3 2 3 4 3 5 5 5 5
6 7 4 5 5 6 7 8 8 7 4 4 3 3 3 3 2 2 2 1 3 2 1 2 3 4 2 3 3 2 4 2 4 5 5 5 4 5
8 8 6 7 8 8 10 9 7 7 6 4 4 3 4 4 3 3 3 3 3 2 1 0 0 1 2 3 6 5 3 3 4 6 3 5 5 5
6 9 9 7 6 4 5 6 6 5 5 5 4 5 4 3 3 4 3 2 1 1 1 1 2 1 1 2 1 1 3 3 6 5 5 3 4 7
7 9 8 8 5 6 7 5 4 5 5 4 3 3 4 4 3 4 4 3 3 2 1 1 2 2 1 1 2 2 1 5 5 6 5 3 3 8
9 10 7 6 5 4 5 5 5 5 5 4 4 5 4 4 4 4 3 3 3 4 3 2 2 2 1 0 1 1 1 2 5 7 5 5 4 4
10 10 8 5 5 5 5 5 4 5 5 5 4 4 4 4 4 3 3 4 4 3 3 4 4 3 3 2 2 3 2 2 1 6 8 6 5 7
9 9 9 9 5 5 4 4 5 6 7 6 6 7 5 4 4 3 3 3 3 3 3 3 3 2 3 2 2 4 4 3 3 3 3 9 4 3
Wind_Direction
240 220 251 281 293 305 300 222 172 318 353 347 204 147 59 18 319 198 185 191 195 200 199 202 208 214 217 219 220 222 223 224 224 225 226 217 213 221
211 246 245 299 309 302 315 327 71 227 269 168 220 216 71 76 287 264 256 169 197 202 206 201 200 205 210 213 218 221 222 223 223 222 218 210 205 209
282 285 279 271 284 299 333 334 351 55 331 296 327 319 154 179 235 234 217 211 211 214 211 201 198 198 202 205 210 218 222 217 215 215 212 205 203 204
238 242 248 237 236 265 283 289 300 298 272 273 267 269 259 240 221 216 220 255 287 229 218 199 197 200 203 202 202 211 215 212 209 209 209 199 199 196
234 232 242 252 247 223 274 290 298 304 301 271 274 271 272 274 300 300 303 254 278 300 220 213 199 206 205 204 201 201 203 206 207 204 200 193 186 193
237 240 245 237 235 224 236 251 270 271 281 285 287 296 292 354 70 60 94 322 291 285 279 238 224 208 211 204 200 198 197 199 203 200 191 182 177 185
243 247 239 250 230 211 208 228 232 248 257 290 289 289 292 331 333 254 233 236 265 233 222 21 274 219 230 228 226 208 198 197 196 195 188 180 180 189
231 232 255 269 232 224 218 224 290 241 253 262 273 281 290 296 321 319 292 288 286 191 206 220 193 211 217 203 201 185 196 191 189 188 188 180 183 181
235 218 242 247 240 237 207 153 200 212 223 238 249 252 282 301 28 311 318 313 280 298 320 283 289 275 90 50 73 136 177 184 183 182 187 180 174 171
265 257 260 275 281 264 258 212 200 220 220 224 231 247 245 99 199 258 278 286 291 284 261 273 272 259 128 105 60 97 174 182 186 183 181 168 169 162
247 249 246 246 168 152 178 225 258 280 257 205 220 216 214 215 214 268 272 284 292 286 270 258 254 202 71 77 52 38 20 191 183 179 168 161 163 154
236 238 241 241 168 177 186 222 246 243 294 2 250 238 233 236 208 205 245 273 293 294 26 345 350 107 148 54 36 24 77 51 145 157 155 151 147 141
237 238 219 177 181 229 191 235 250 15 304 294 280 273 253 246 205 202 207 224 252 266 333 25 338 328 330 112 28 7 58 89 84 97 119 147 161 149
269 263 115 144 175 188 167 240 133 324 264 252 250 260 334 334 306 164 212 222 248 268 313 13 287 344 349 145 182 133 48 86 106 101 116 135 125 148
308 359 90 177 155 155 237 166 169 224 242 238 243 307 316 279 298 283 294 280 240 242 238 41 319 315 137 270 154 162 158 137 109 129 135 159 149 162
259 270 212 196 208 253 223 213 225 223 238 202 226 253 260 275 351 28 344 338 312 280 91 57 352 271 235 181 163 150 159 154 143 145 143 133 141 170
283 235 215 210 214 222 225 211 208 218 219 213 198 226 238 248 243 184 229 246 258 261 157 39 9 350 14 162 130 146 147 124 154 150 151 152 168 169
210 237 219 220 216 221 216 212 193 197 216 200 188 208 233 226 207 213 188 221 245 220 184 143 3 333 18 46 38 143 145 130 151 160 150 162 174 187
217 228 236 221 217 200 238 241 182 172 184 211 192 193 228 241 155 227 201 178 257 80 102 129 179 221 211 213 4 348 144 141 149 164 177 173 180 187
219 225 228 225 205 205 210 219 162 143 190 206 195 189 208 207 207 227 255 188 136 146 151 202 220 232 257 223 196 172 330 152 170 171 174 134 77 123
213 235 234 225 196 208 190 204 189 157 183 194 196 197 213 197 224 194 174 101 156 168 157 194 219 93 82 69 108 144 168 268 175 173 163 164 162 159
212 219 227 239 196 193 193 178 158 161 188 216 187 185 215 201 224 224 186 172 186 176 138 134 145 182 186 230 234 136 134 128 164 189 193 173 168 192
212 214 216 217 189 177 186 207 185 191 208 213 189 187 189 191 190 194 177 192 168 143 133 134 157 173 213 204 293 148 160 154 150 177 211 213 226 212